Year,Month,Day,Hour,Minute,Value (Times are PST for temperature in C)
2019,04,27,00,00,-0.70
2019,04,27,00,01,-0.70
2019,04,27,00,02,-0.70
2019,04,27,00,03,-0.80
2019,04,27,00,04,-0.80
2019,04,27,00,05,-0.80
2019,04,27,00,06,-0.80
2019,04,27,00,07,-0.80
2019,04,27,00,08,-0.80
2019,04,27,00,09,-0.90
2019,04,27,00,10,-0.90
2019,04,27,00,11,-0.90
2019,04,27,00,12,-0.90
2019,04,27,00,13,-1.00
2019,04,27,00,14,-1.00
2019,04,27,00,15,-1.10
2019,04,27,00,16,-1.10
2019,04,27,00,17,-1.20
2019,04,27,00,18,-1.20
2019,04,27,00,19,-1.20
2019,04,27,00,20,-1.20
2019,04,27,00,21,-1.30
2019,04,27,00,22,-1.30
2019,04,27,00,23,-1.30
2019,04,27,00,24,-1.40
2019,04,27,00,25,-1.40
2019,04,27,00,26,-1.50
2019,04,27,00,27,-1.50
2019,04,27,00,28,-1.60
2019,04,27,00,29,-1.60
2019,04,27,00,30,-1.60
2019,04,27,00,31,-1.60
2019,04,27,00,32,-1.70
2019,04,27,00,33,-1.70
2019,04,27,00,34,-1.70
2019,04,27,00,35,-1.70
2019,04,27,00,36,-1.70
2019,04,27,00,37,-1.70
2019,04,27,00,38,-1.70
2019,04,27,00,39,-1.80
2019,04,27,00,40,-1.80
2019,04,27,00,41,-1.80
2019,04,27,00,42,-1.80
2019,04,27,00,43,-1.80
2019,04,27,00,44,-1.80
2019,04,27,00,45,-1.80
2019,04,27,00,46,-1.80
2019,04,27,00,47,-1.90
2019,04,27,00,48,-1.90
2019,04,27,00,49,-1.90
2019,04,27,00,50,-1.90
2019,04,27,00,51,-2.00
2019,04,27,00,52,-2.00
2019,04,27,00,53,-2.00
2019,04,27,00,54,-2.00
2019,04,27,00,55,-2.00
2019,04,27,00,56,-2.10
2019,04,27,00,57,-2.10
2019,04,27,00,58,-2.10
2019,04,27,00,59,-2.10
2019,04,27,01,00,-2.10
2019,04,27,01,01,-2.10
2019,04,27,01,02,-2.10
2019,04,27,01,03,-2.10
2019,04,27,01,04,-2.10
2019,04,27,01,05,-2.10
2019,04,27,01,06,-2.10
2019,04,27,01,07,-2.10
2019,04,27,01,08,-2.10
2019,04,27,01,09,-2.10
2019,04,27,01,10,-2.10
2019,04,27,01,11,-2.10
2019,04,27,01,12,-2.10
2019,04,27,01,13,-2.10
2019,04,27,01,14,-2.10
2019,04,27,01,15,-2.20
2019,04,27,01,16,-2.20
2019,04,27,01,17,-2.20
2019,04,27,01,18,-2.20
2019,04,27,01,19,-2.20
2019,04,27,01,20,-2.20
2019,04,27,01,21,-2.30
2019,04,27,01,22,-2.30
2019,04,27,01,23,-2.30
2019,04,27,01,24,-2.30
2019,04,27,01,25,-2.30
2019,04,27,01,26,-2.30
2019,04,27,01,27,-2.30
2019,04,27,01,28,-2.30
2019,04,27,01,29,-2.30
2019,04,27,01,30,-2.30
2019,04,27,01,31,-2.30
2019,04,27,01,32,-2.30
2019,04,27,01,33,-2.30
2019,04,27,01,34,-2.40
2019,04,27,01,35,-2.40
2019,04,27,01,36,-2.40
2019,04,27,01,37,-2.40
2019,04,27,01,38,-2.40
2019,04,27,01,39,-2.40
2019,04,27,01,40,-2.40
2019,04,27,01,41,-2.40
2019,04,27,01,42,-2.40
2019,04,27,01,43,-2.40
2019,04,27,01,44,-2.40
2019,04,27,01,45,-2.40
2019,04,27,01,46,-2.50
2019,04,27,01,47,-2.50
2019,04,27,01,48,-2.50
2019,04,27,01,49,-2.60
2019,04,27,01,50,-2.60
2019,04,27,01,51,-2.60
2019,04,27,01,52,-2.60
2019,04,27,01,53,-2.60
2019,04,27,01,54,-2.70
2019,04,27,01,55,-2.70
2019,04,27,01,56,-2.70
2019,04,27,01,57,-2.70
2019,04,27,01,58,-2.70
2019,04,27,01,59,-2.80
2019,04,27,02,00,-2.80
2019,04,27,02,01,-2.80
2019,04,27,02,02,-2.80
2019,04,27,02,03,-2.80
2019,04,27,02,04,-2.80
2019,04,27,02,05,-2.80
2019,04,27,02,06,-2.90
2019,04,27,02,07,-2.90
2019,04,27,02,08,-2.90
2019,04,27,02,09,-2.90
2019,04,27,02,10,-2.90
2019,04,27,02,11,-3.00
2019,04,27,02,12,-3.00
2019,04,27,02,13,-3.00
2019,04,27,02,14,-3.00
2019,04,27,02,15,-3.00
2019,04,27,02,16,-3.00
2019,04,27,02,17,-3.00
2019,04,27,02,18,-3.00
2019,04,27,02,19,-3.10
2019,04,27,02,20,-3.10
2019,04,27,02,21,-3.10
2019,04,27,02,22,-3.10
2019,04,27,02,23,-3.10
2019,04,27,02,24,-3.10
2019,04,27,02,25,-3.10
2019,04,27,02,26,-3.10
2019,04,27,02,27,-3.10
2019,04,27,02,28,-3.10
2019,04,27,02,29,-3.20
2019,04,27,02,30,-3.20
2019,04,27,02,31,-3.20
2019,04,27,02,32,-3.20
2019,04,27,02,33,-3.20
2019,04,27,02,34,-3.20
2019,04,27,02,35,-3.20
2019,04,27,02,36,-3.20
2019,04,27,02,37,-3.20
2019,04,27,02,38,-3.20
2019,04,27,02,39,-3.30
2019,04,27,02,40,-3.30
2019,04,27,02,41,-3.30
2019,04,27,02,42,-3.30
2019,04,27,02,43,-3.30
2019,04,27,02,44,-3.30
2019,04,27,02,45,-3.30
2019,04,27,02,46,-3.40
2019,04,27,02,47,-3.40
2019,04,27,02,48,-3.40
2019,04,27,02,49,-3.40
2019,04,27,02,50,-3.40
2019,04,27,02,51,-3.40
2019,04,27,02,52,-3.40
2019,04,27,02,53,-3.50
2019,04,27,02,54,-3.50
2019,04,27,02,55,-3.50
2019,04,27,02,56,-3.50
2019,04,27,02,57,-3.50
2019,04,27,02,58,-3.50
2019,04,27,02,59,-3.50
2019,04,27,03,00,-3.50
2019,04,27,03,01,-3.50
2019,04,27,03,02,-3.50
2019,04,27,03,03,-3.50
2019,04,27,03,04,-3.50
2019,04,27,03,05,-3.60
2019,04,27,03,06,-3.60
2019,04,27,03,07,-3.60
2019,04,27,03,08,-3.60
2019,04,27,03,09,-3.60
2019,04,27,03,10,-3.60
2019,04,27,03,11,-3.70
2019,04,27,03,12,-3.70
2019,04,27,03,13,-3.70
2019,04,27,03,14,-3.70
2019,04,27,03,15,-3.70
2019,04,27,03,16,-3.70
2019,04,27,03,17,-3.70
2019,04,27,03,18,-3.70
2019,04,27,03,19,-3.70
2019,04,27,03,20,-3.70
2019,04,27,03,21,-3.70
2019,04,27,03,22,-3.70
2019,04,27,03,23,-3.70
2019,04,27,03,24,-3.70
2019,04,27,03,25,-3.80
2019,04,27,03,26,-3.80
2019,04,27,03,27,-3.80
2019,04,27,03,28,-3.80
2019,04,27,03,29,-3.80
2019,04,27,03,30,-3.80
2019,04,27,03,31,-3.90
2019,04,27,03,32,-3.90
2019,04,27,03,33,-3.90
2019,04,27,03,34,-3.90
2019,04,27,03,35,-3.90
2019,04,27,03,36,-4.00
2019,04,27,03,37,-4.00
2019,04,27,03,38,-4.00
2019,04,27,03,39,-4.00
2019,04,27,03,40,-4.00
2019,04,27,03,41,-4.00
2019,04,27,03,42,-4.10
2019,04,27,03,43,-4.10
2019,04,27,03,44,-4.10
2019,04,27,03,45,-4.10
2019,04,27,03,46,-4.10
2019,04,27,03,47,-4.10
2019,04,27,03,48,-4.20
2019,04,27,03,49,-4.20
2019,04,27,03,50,-4.20
2019,04,27,03,51,-4.20
2019,04,27,03,52,-4.20
2019,04,27,03,53,-4.20
2019,04,27,03,54,-4.20
2019,04,27,03,55,-4.30
2019,04,27,03,56,-4.30
2019,04,27,03,57,-4.30
2019,04,27,03,58,-4.30
2019,04,27,03,59,-4.30
2019,04,27,04,00,-4.30
2019,04,27,04,01,-4.30
2019,04,27,04,02,-4.30
2019,04,27,04,03,-4.30
2019,04,27,04,04,-4.40
2019,04,27,04,05,-4.40
2019,04,27,04,06,-4.40
2019,04,27,04,07,-4.40
2019,04,27,04,08,-4.40
2019,04,27,04,09,-4.40
2019,04,27,04,10,-4.40
2019,04,27,04,11,-4.40
2019,04,27,04,12,-4.50
2019,04,27,04,13,-4.50
2019,04,27,04,14,-4.50
2019,04,27,04,15,-4.50
2019,04,27,04,16,-4.50
2019,04,27,04,17,-4.50
2019,04,27,04,18,-4.50
2019,04,27,04,19,-4.50
2019,04,27,04,20,-4.50
2019,04,27,04,21,-4.50
2019,04,27,04,22,-4.60
2019,04,27,04,23,-4.60
2019,04,27,04,24,-4.60
2019,04,27,04,25,-4.60
2019,04,27,04,26,-4.60
2019,04,27,04,27,-4.70
2019,04,27,04,28,-4.70
2019,04,27,04,29,-4.70
2019,04,27,04,30,-4.70
2019,04,27,04,31,-4.70
2019,04,27,04,32,-4.70
2019,04,27,04,33,-4.70
2019,04,27,04,34,-4.70
2019,04,27,04,35,-4.70
2019,04,27,04,36,-4.70
2019,04,27,04,37,-4.70
2019,04,27,04,38,-4.70
2019,04,27,04,39,-4.80
2019,04,27,04,40,-4.80
2019,04,27,04,41,-4.80
2019,04,27,04,42,-4.80
2019,04,27,04,43,-4.80
2019,04,27,04,44,-4.80
2019,04,27,04,45,-4.80
2019,04,27,04,46,-4.80
2019,04,27,04,47,-4.80
2019,04,27,04,48,-4.90
2019,04,27,04,49,-4.90
2019,04,27,04,50,-4.90
2019,04,27,04,51,-4.90
2019,04,27,04,52,-4.90
2019,04,27,04,53,-4.90
2019,04,27,04,54,-5.00
2019,04,27,04,55,-5.00
2019,04,27,04,56,-5.00
2019,04,27,04,57,-5.00
2019,04,27,04,58,-5.00
2019,04,27,04,59,-5.00
2019,04,27,05,00,-5.10
2019,04,27,05,01,-5.10
2019,04,27,05,02,-5.10
2019,04,27,05,03,-5.10
2019,04,27,05,04,-5.10
2019,04,27,05,05,-5.10
2019,04,27,05,06,-5.10
2019,04,27,05,07,-5.10
2019,04,27,05,08,-5.20
2019,04,27,05,09,-5.20
2019,04,27,05,10,-5.20
2019,04,27,05,11,-5.20
2019,04,27,05,12,-5.20
2019,04,27,05,13,-5.20
2019,04,27,05,14,-5.20
2019,04,27,05,15,-5.20
2019,04,27,05,16,-5.20
2019,04,27,05,17,-5.20
2019,04,27,05,18,-5.20
2019,04,27,05,19,-5.20
2019,04,27,05,20,-5.20
2019,04,27,05,21,-5.20
2019,04,27,05,22,-5.30
2019,04,27,05,23,-5.30
2019,04,27,05,24,-5.30
2019,04,27,05,25,-5.30
2019,04,27,05,26,-5.30
2019,04,27,05,27,-5.30
2019,04,27,05,28,-5.30
2019,04,27,05,29,-5.30
2019,04,27,05,30,-5.40
2019,04,27,05,31,-5.40
2019,04,27,05,32,-5.40
2019,04,27,05,33,-5.40
2019,04,27,05,34,-5.40
2019,04,27,05,35,-5.40
2019,04,27,05,36,-5.40
2019,04,27,05,37,-5.40
2019,04,27,05,38,-5.40
2019,04,27,05,39,-5.40
2019,04,27,05,40,-5.50
2019,04,27,05,41,-5.50
2019,04,27,05,42,-5.50
2019,04,27,05,43,-5.50
2019,04,27,05,44,-5.50
2019,04,27,05,45,-5.50
2019,04,27,05,46,-5.60
2019,04,27,05,47,-5.60
2019,04,27,05,48,-5.60
2019,04,27,05,49,-5.60
2019,04,27,05,50,-5.60
2019,04,27,05,51,-5.60
2019,04,27,05,52,-5.60
2019,04,27,05,53,-5.70
2019,04,27,05,54,-5.60
2019,04,27,05,55,-5.70
2019,04,27,05,56,-5.70
2019,04,27,05,57,-5.70
2019,04,27,05,58,-5.70
2019,04,27,05,59,-5.70
2019,04,27,06,00,-5.70
2019,04,27,06,01,-5.70
2019,04,27,06,02,-5.70
2019,04,27,06,03,-5.70
2019,04,27,06,04,-5.70
2019,04,27,06,05,-5.70
2019,04,27,06,06,-5.70
2019,04,27,06,07,-5.70
2019,04,27,06,08,-5.70
2019,04,27,06,09,-5.70
2019,04,27,06,10,-5.70
2019,04,27,06,11,-5.70
2019,04,27,06,12,-5.80
2019,04,27,06,13,-5.80
2019,04,27,06,14,-5.80
2019,04,27,06,15,-5.80
2019,04,27,06,16,-5.80
2019,04,27,06,17,-5.80
2019,04,27,06,18,-5.80
2019,04,27,06,19,-5.80
2019,04,27,06,20,-5.80
2019,04,27,06,21,-5.80
2019,04,27,06,22,-5.80
2019,04,27,06,23,-5.80
2019,04,27,06,24,-5.80
2019,04,27,06,25,-5.80
2019,04,27,06,26,-5.80
2019,04,27,06,27,-5.80
2019,04,27,06,28,-5.80
2019,04,27,06,29,-5.80
2019,04,27,06,30,-5.80
2019,04,27,06,31,-5.80
2019,04,27,06,32,-5.80
2019,04,27,06,33,-5.80
2019,04,27,06,34,-5.80
2019,04,27,06,35,-5.80
2019,04,27,06,36,-5.90
2019,04,27,06,37,-5.90
2019,04,27,06,38,-5.90
2019,04,27,06,39,-5.90
2019,04,27,06,40,-5.90
2019,04,27,06,41,-5.90
2019,04,27,06,42,-5.90
2019,04,27,06,43,-5.90
2019,04,27,06,44,-5.90
2019,04,27,06,45,-5.90
2019,04,27,06,46,-5.90
2019,04,27,06,47,-5.90
2019,04,27,06,48,-5.90
2019,04,27,06,49,-5.90
2019,04,27,06,50,-5.90
2019,04,27,06,51,-5.90
2019,04,27,06,52,-5.90
2019,04,27,06,53,-5.90
2019,04,27,06,54,-5.90
2019,04,27,06,55,-5.90
2019,04,27,06,56,-5.90
2019,04,27,06,57,-6.00
2019,04,27,06,58,-6.00
2019,04,27,06,59,-6.00
2019,04,27,07,00,-6.00
2019,04,27,07,01,-6.00
2019,04,27,07,02,-6.00
2019,04,27,07,03,-6.00
2019,04,27,07,04,-6.10
2019,04,27,07,05,-6.10
2019,04,27,07,06,-6.10
2019,04,27,07,07,-6.10
2019,04,27,07,08,-6.10
2019,04,27,07,09,-6.10
2019,04,27,07,10,-6.10
2019,04,27,07,11,-6.10
2019,04,27,07,12,-6.10
2019,04,27,07,13,-6.10
2019,04,27,07,14,-6.10
2019,04,27,07,15,-6.10
2019,04,27,07,16,-6.00
2019,04,27,07,17,-6.00
2019,04,27,07,18,-6.00
2019,04,27,07,19,-6.00
2019,04,27,07,20,-6.00
2019,04,27,07,21,-6.00
2019,04,27,07,22,-6.00
2019,04,27,07,23,-6.00
2019,04,27,07,24,-6.00
2019,04,27,07,25,-6.00
2019,04,27,07,26,-6.00
2019,04,27,07,27,-6.00
2019,04,27,07,28,-6.00
2019,04,27,07,29,-6.00
2019,04,27,07,30,-6.00
2019,04,27,07,31,-6.00
2019,04,27,07,32,-6.00
2019,04,27,07,33,-6.00
2019,04,27,07,34,-6.00
2019,04,27,07,35,-6.00
2019,04,27,07,36,-6.00
2019,04,27,07,37,-6.00
2019,04,27,07,38,-6.00
2019,04,27,07,39,-6.00
2019,04,27,07,40,-6.00
2019,04,27,07,41,-6.00
2019,04,27,07,42,-6.00
2019,04,27,07,43,-6.00
2019,04,27,07,44,-6.00
2019,04,27,07,45,-6.00
2019,04,27,07,46,-6.00
2019,04,27,07,47,-6.00
2019,04,27,07,48,-6.00
2019,04,27,07,49,-6.00
2019,04,27,07,50,-6.00
2019,04,27,07,51,-6.00
2019,04,27,07,52,-6.00
2019,04,27,07,53,-6.00
2019,04,27,07,54,-5.90
2019,04,27,07,55,-5.90
2019,04,27,07,56,-5.90
2019,04,27,07,57,-5.90
2019,04,27,07,58,-5.90
2019,04,27,07,59,-5.90
2019,04,27,08,00,-5.90
2019,04,27,08,01,-5.90
2019,04,27,08,02,-5.90
2019,04,27,08,03,-5.90
2019,04,27,08,04,-5.90
2019,04,27,08,05,-5.90
2019,04,27,08,06,-5.90
2019,04,27,08,07,-5.90
2019,04,27,08,08,-5.90
2019,04,27,08,09,-5.90
2019,04,27,08,10,-5.90
2019,04,27,08,11,-5.90
2019,04,27,08,12,-5.90
2019,04,27,08,13,-5.90
2019,04,27,08,14,-5.90
2019,04,27,08,15,-5.90
2019,04,27,08,16,-5.90
2019,04,27,08,17,-5.90
2019,04,27,08,18,-5.90
2019,04,27,08,19,-5.90
2019,04,27,08,20,-5.80
2019,04,27,08,21,-5.80
2019,04,27,08,22,-5.80
2019,04,27,08,23,-5.80
2019,04,27,08,24,-5.80
2019,04,27,08,25,-5.70
2019,04,27,08,26,-5.70
2019,04,27,08,27,-5.70
2019,04,27,08,28,-5.70
2019,04,27,08,29,-5.70
2019,04,27,08,30,-5.70
2019,04,27,08,31,-5.70
2019,04,27,08,32,-5.70
2019,04,27,08,33,-5.70
2019,04,27,08,34,-5.70
2019,04,27,08,35,-5.70
2019,04,27,08,36,-5.70
2019,04,27,08,37,-5.70
2019,04,27,08,38,-5.70
2019,04,27,08,39,-5.70
2019,04,27,08,40,-5.70
2019,04,27,08,41,-5.70
2019,04,27,08,42,-5.70
2019,04,27,08,43,-5.60
2019,04,27,08,44,-5.60
2019,04,27,08,45,-5.60
2019,04,27,08,46,-5.60
2019,04,27,08,47,-5.50
2019,04,27,08,48,-5.50
2019,04,27,08,49,-5.50
2019,04,27,08,50,-5.50
2019,04,27,08,51,-5.40
2019,04,27,08,52,-5.40
2019,04,27,08,53,-5.40
2019,04,27,08,54,-5.40
2019,04,27,08,55,-5.40
2019,04,27,08,56,-5.30
2019,04,27,08,57,-5.30
2019,04,27,08,58,-5.30
2019,04,27,08,59,-5.30
2019,04,27,09,00,-5.20
2019,04,27,09,01,-5.20
2019,04,27,09,02,-5.10
2019,04,27,09,03,-5.00
2019,04,27,09,04,-5.00
2019,04,27,09,05,-4.90
2019,04,27,09,06,-4.80
2019,04,27,09,07,-4.70
2019,04,27,09,08,-4.60
2019,04,27,09,09,-4.40
2019,04,27,09,10,-4.30
2019,04,27,09,11,-4.10
2019,04,27,09,12,-4.00
2019,04,27,09,13,-3.90
2019,04,27,09,14,-3.80
2019,04,27,09,15,-3.70
2019,04,27,09,16,-3.60
2019,04,27,09,17,-3.50
2019,04,27,09,18,-3.40
2019,04,27,09,19,-3.40
2019,04,27,09,20,-3.30
2019,04,27,09,21,-3.30
2019,04,27,09,22,-3.20
2019,04,27,09,23,-3.10
2019,04,27,09,24,-3.10
2019,04,27,09,25,-3.00
2019,04,27,09,26,-2.90
2019,04,27,09,27,-2.80
2019,04,27,09,28,-2.80
2019,04,27,09,29,-2.70
2019,04,27,09,30,-2.70
2019,04,27,09,31,-2.60
2019,04,27,09,32,-2.60
2019,04,27,09,33,-2.60
2019,04,27,09,34,-2.50
2019,04,27,09,35,-2.40
2019,04,27,09,36,-2.40
2019,04,27,09,37,-2.30
2019,04,27,09,38,-2.30
2019,04,27,09,39,-2.30
2019,04,27,09,40,-2.20
2019,04,27,09,41,-2.10
2019,04,27,09,42,-2.10
2019,04,27,09,43,-2.00
2019,04,27,09,44,-1.90
2019,04,27,09,45,-1.80
2019,04,27,09,46,-1.70
2019,04,27,09,47,-1.50
2019,04,27,09,48,-1.40
2019,04,27,09,49,-1.30
2019,04,27,09,50,-1.20
2019,04,27,09,51,-1.10
2019,04,27,09,52,-1.00
2019,04,27,09,53,-1.00
2019,04,27,09,54,-0.90
2019,04,27,09,55,-0.90
2019,04,27,09,56,-0.80
2019,04,27,09,57,-0.80
2019,04,27,09,58,-0.70
2019,04,27,09,59,-0.70
2019,04,27,10,00,-0.60
2019,04,27,10,01,-0.60
2019,04,27,10,02,-0.60
2019,04,27,10,03,-0.60
2019,04,27,10,04,-0.60
2019,04,27,10,05,-0.70
2019,04,27,10,06,-0.70
2019,04,27,10,07,-0.60
2019,04,27,10,08,-0.60
2019,04,27,10,09,-0.50
2019,04,27,10,10,-0.50
2019,04,27,10,11,-0.40
2019,04,27,10,12,-0.40
2019,04,27,10,13,-0.40
2019,04,27,10,14,-0.30
2019,04,27,10,15,-0.30
2019,04,27,10,16,-0.30
2019,04,27,10,17,-0.20
2019,04,27,10,18,-0.20
2019,04,27,10,19,-0.10
2019,04,27,10,20,-0.10
2019,04,27,10,21,-0.10
2019,04,27,10,22,0.00
2019,04,27,10,23,0.10
2019,04,27,10,24,0.10
2019,04,27,10,25,0.20
2019,04,27,10,26,0.20
2019,04,27,10,27,0.20
2019,04,27,10,28,0.20
2019,04,27,10,29,0.20
2019,04,27,10,30,0.20
2019,04,27,10,31,0.30
2019,04,27,10,32,0.30
2019,04,27,10,33,0.30
2019,04,27,10,34,0.40
2019,04,27,10,35,0.40
2019,04,27,10,36,0.40
2019,04,27,10,37,0.40
2019,04,27,10,38,0.40
2019,04,27,10,39,0.40
2019,04,27,10,40,0.40
2019,04,27,10,41,0.40
2019,04,27,10,42,0.50
2019,04,27,10,43,0.50
2019,04,27,10,44,0.60
2019,04,27,10,45,0.60
2019,04,27,10,46,0.70
2019,04,27,10,47,0.70
2019,04,27,10,48,0.70
2019,04,27,10,49,0.70
2019,04,27,10,50,0.70
2019,04,27,10,51,0.70
2019,04,27,10,52,0.80
2019,04,27,10,53,0.80
2019,04,27,10,54,0.80
2019,04,27,10,55,0.90
2019,04,27,10,56,0.90
2019,04,27,10,57,0.90
2019,04,27,10,58,0.90
2019,04,27,10,59,1.00
2019,04,27,11,00,1.10
2019,04,27,11,01,1.10
2019,04,27,11,02,1.20
2019,04,27,11,03,1.30
2019,04,27,11,04,1.30
2019,04,27,11,05,1.30
2019,04,27,11,06,1.40
2019,04,27,11,07,1.40
2019,04,27,11,08,1.40
2019,04,27,11,09,1.50
2019,04,27,11,10,1.60
2019,04,27,11,11,1.70
2019,04,27,11,12,1.80
2019,04,27,11,13,1.80
2019,04,27,11,14,1.90
2019,04,27,11,15,2.00
2019,04,27,11,16,2.00
2019,04,27,11,17,2.10
2019,04,27,11,18,2.20
2019,04,27,11,19,2.20
2019,04,27,11,20,2.20
2019,04,27,11,21,2.20
2019,04,27,11,22,2.30
2019,04,27,11,23,2.30
2019,04,27,11,24,2.30
2019,04,27,11,25,2.30
2019,04,27,11,26,2.30
2019,04,27,11,27,2.30
2019,04,27,11,28,2.30
2019,04,27,11,29,2.30
2019,04,27,11,30,2.30
2019,04,27,11,31,2.30
2019,04,27,11,32,2.30
2019,04,27,11,33,2.30
2019,04,27,11,34,2.40
2019,04,27,11,35,2.40
2019,04,27,11,36,2.50
2019,04,27,11,37,2.60
2019,04,27,11,38,2.60
2019,04,27,11,39,2.70
2019,04,27,11,40,2.70
2019,04,27,11,41,2.80
2019,04,27,11,42,2.90
2019,04,27,11,43,3.00
2019,04,27,11,44,3.00
2019,04,27,11,45,3.10
2019,04,27,11,46,3.20
2019,04,27,11,47,3.30
2019,04,27,11,48,3.40
2019,04,27,11,49,3.50
2019,04,27,11,50,3.50
2019,04,27,11,51,3.60
2019,04,27,11,52,3.70
2019,04,27,11,53,3.70
2019,04,27,11,54,3.70
2019,04,27,11,55,3.80
2019,04,27,11,56,3.90
2019,04,27,11,57,4.00
2019,04,27,11,58,4.00
2019,04,27,11,59,4.10
2019,04,27,12,00,4.10
2019,04,27,12,01,4.10
2019,04,27,12,02,4.20
2019,04,27,12,03,4.20
2019,04,27,12,04,4.20
2019,04,27,12,05,4.30
2019,04,27,12,06,4.40
2019,04,27,12,07,4.50
2019,04,27,12,08,4.60
2019,04,27,12,09,4.70
2019,04,27,12,10,4.80
2019,04,27,12,11,4.90
2019,04,27,12,12,5.00
2019,04,27,12,13,5.10
2019,04,27,12,14,5.10
2019,04,27,12,15,5.10
2019,04,27,12,16,5.10
2019,04,27,12,17,5.20
2019,04,27,12,18,5.10
2019,04,27,12,19,5.10
2019,04,27,12,20,5.00
2019,04,27,12,21,5.00
2019,04,27,12,22,5.00
2019,04,27,12,23,5.00
2019,04,27,12,24,5.00
2019,04,27,12,25,5.10
2019,04,27,12,26,5.20
2019,04,27,12,27,5.30
2019,04,27,12,28,5.40
2019,04,27,12,29,5.50
2019,04,27,12,30,5.70
2019,04,27,12,31,5.70
2019,04,27,12,32,5.80
2019,04,27,12,33,5.90
2019,04,27,12,34,6.00
2019,04,27,12,35,6.10
2019,04,27,12,36,6.20
2019,04,27,12,37,6.30
2019,04,27,12,38,6.30
2019,04,27,12,39,6.40
2019,04,27,12,40,6.50
2019,04,27,12,41,6.50
2019,04,27,12,42,6.50
2019,04,27,12,43,6.50
2019,04,27,12,44,6.40
2019,04,27,12,45,6.40
2019,04,27,12,46,6.40
2019,04,27,12,47,6.40
2019,04,27,12,48,6.30
2019,04,27,12,49,6.30
2019,04,27,12,50,6.30
2019,04,27,12,51,6.30
2019,04,27,12,52,6.40
2019,04,27,12,53,6.50
2019,04,27,12,54,6.60
2019,04,27,12,55,6.60
2019,04,27,12,56,6.60
2019,04,27,12,57,6.60
2019,04,27,12,58,6.60
2019,04,27,12,59,6.70
2019,04,27,13,00,6.70
2019,04,27,13,01,6.70
2019,04,27,13,02,6.70
2019,04,27,13,03,6.70
2019,04,27,13,04,6.70
2019,04,27,13,05,6.70
2019,04,27,13,06,6.70
2019,04,27,13,07,6.80
2019,04,27,13,08,6.80
2019,04,27,13,09,6.80
2019,04,27,13,10,6.80
2019,04,27,13,11,6.80
2019,04,27,13,12,6.80
2019,04,27,13,13,6.80
2019,04,27,13,14,6.80
2019,04,27,13,15,6.80
2019,04,27,13,16,6.80
2019,04,27,13,17,6.80
2019,04,27,13,18,6.70
2019,04,27,13,19,6.70
2019,04,27,13,20,6.70
2019,04,27,13,21,6.70
2019,04,27,13,22,6.70
2019,04,27,13,23,6.70
2019,04,27,13,24,6.70
2019,04,27,13,25,6.70
2019,04,27,13,26,6.80
2019,04,27,13,27,6.80
2019,04,27,13,28,6.80
2019,04,27,13,29,6.80
2019,04,27,13,30,6.90
2019,04,27,13,31,6.90
2019,04,27,13,32,7.00
2019,04,27,13,33,7.00
2019,04,27,13,34,7.10
2019,04,27,13,35,7.20
2019,04,27,13,36,7.20
2019,04,27,13,37,7.20
2019,04,27,13,38,7.30
2019,04,27,13,39,7.30
2019,04,27,13,40,7.30
2019,04,27,13,41,7.30
2019,04,27,13,42,7.30
2019,04,27,13,43,7.30
2019,04,27,13,44,7.30
2019,04,27,13,45,7.40
2019,04,27,13,46,7.40
2019,04,27,13,47,7.40
2019,04,27,13,48,7.50
2019,04,27,13,49,7.50
2019,04,27,13,50,7.60
2019,04,27,13,51,7.60
2019,04,27,13,52,7.60
2019,04,27,13,53,7.70
2019,04,27,13,54,7.80
2019,04,27,13,55,7.90
2019,04,27,13,56,7.90
2019,04,27,13,57,8.00
2019,04,27,13,58,8.00
2019,04,27,13,59,8.00
2019,04,27,14,00,8.00
2019,04,27,14,01,7.90
2019,04,27,14,02,7.90
2019,04,27,14,03,7.90
2019,04,27,14,04,7.90
2019,04,27,14,05,8.00
2019,04,27,14,06,8.00
2019,04,27,14,07,8.10
2019,04,27,14,08,8.10
2019,04,27,14,09,8.10
2019,04,27,14,10,8.10
2019,04,27,14,11,8.10
2019,04,27,14,12,8.10
2019,04,27,14,13,8.10
2019,04,27,14,14,8.20
2019,04,27,14,15,8.20
2019,04,27,14,16,8.20
2019,04,27,14,17,8.20
2019,04,27,14,18,8.20
2019,04,27,14,19,8.20
2019,04,27,14,20,8.20
2019,04,27,14,21,8.20
2019,04,27,14,22,8.20
2019,04,27,14,23,8.30
2019,04,27,14,24,8.30
2019,04,27,14,25,8.30
2019,04,27,14,26,8.40
2019,04,27,14,27,8.40
2019,04,27,14,28,8.40
2019,04,27,14,29,8.30
2019,04,27,14,30,8.30
2019,04,27,14,31,8.30
2019,04,27,14,32,8.30
2019,04,27,14,33,8.30
2019,04,27,14,34,8.30
2019,04,27,14,35,8.30
2019,04,27,14,36,8.30
2019,04,27,14,37,8.40
2019,04,27,14,38,8.40
2019,04,27,14,39,8.50
2019,04,27,14,40,8.60
2019,04,27,14,41,8.60
2019,04,27,14,42,8.70
2019,04,27,14,43,8.70
2019,04,27,14,44,8.70
2019,04,27,14,45,8.70
2019,04,27,14,46,8.60
2019,04,27,14,47,8.60
2019,04,27,14,48,8.60
2019,04,27,14,49,8.60
2019,04,27,14,50,8.50
2019,04,27,14,51,8.50
2019,04,27,14,52,8.40
2019,04,27,14,53,8.40
2019,04,27,14,54,8.40
2019,04,27,14,55,8.50
2019,04,27,14,56,8.50
2019,04,27,14,57,8.60
2019,04,27,14,58,8.60
2019,04,27,14,59,8.60
2019,04,27,15,00,8.50
2019,04,27,15,01,8.50
2019,04,27,15,02,8.50
2019,04,27,15,03,8.40
2019,04,27,15,04,8.40
2019,04,27,15,05,8.40
2019,04,27,15,06,8.50
2019,04,27,15,07,8.50
2019,04,27,15,08,8.50
2019,04,27,15,09,8.50
2019,04,27,15,10,8.50
2019,04,27,15,11,8.50
2019,04,27,15,12,8.50
2019,04,27,15,13,8.60
2019,04,27,15,14,8.60
2019,04,27,15,15,8.70
2019,04,27,15,16,8.70
2019,04,27,15,17,8.70
2019,04,27,15,18,8.80
2019,04,27,15,19,8.80
2019,04,27,15,20,8.80
2019,04,27,15,21,8.80
2019,04,27,15,22,8.80
2019,04,27,15,23,8.80
2019,04,27,15,24,8.80
2019,04,27,15,25,8.70
2019,04,27,15,26,8.60
2019,04,27,15,27,8.60
2019,04,27,15,28,8.50
2019,04,27,15,29,8.50
2019,04,27,15,30,8.50
2019,04,27,15,31,8.50
2019,04,27,15,32,8.50
2019,04,27,15,33,8.60
2019,04,27,15,34,8.60
2019,04,27,15,35,8.60
2019,04,27,15,36,8.60
2019,04,27,15,37,8.60
2019,04,27,15,38,8.70
2019,04,27,15,39,8.70
2019,04,27,15,40,8.70
2019,04,27,15,41,8.70
2019,04,27,15,42,8.70
2019,04,27,15,43,8.70
2019,04,27,15,44,8.70
2019,04,27,15,45,8.70
2019,04,27,15,46,8.70
2019,04,27,15,47,8.70
2019,04,27,15,48,8.70
2019,04,27,15,49,8.70
2019,04,27,15,50,8.70
2019,04,27,15,51,8.70
2019,04,27,15,52,8.70
2019,04,27,15,53,8.70
2019,04,27,15,54,8.70
2019,04,27,15,55,8.70
2019,04,27,15,56,8.70
2019,04,27,15,57,8.70
2019,04,27,15,58,8.70
2019,04,27,15,59,8.60
2019,04,27,16,00,8.60
2019,04,27,16,01,8.60
2019,04,27,16,02,8.60
2019,04,27,16,03,8.60
2019,04,27,16,04,8.70
2019,04,27,16,05,8.80
2019,04,27,16,06,8.90
2019,04,27,16,07,8.90
2019,04,27,16,08,9.00
2019,04,27,16,09,9.00
2019,04,27,16,10,9.10
2019,04,27,16,11,9.10
2019,04,27,16,12,9.20
2019,04,27,16,13,9.20
2019,04,27,16,14,9.30
2019,04,27,16,15,9.40
2019,04,27,16,16,9.50
2019,04,27,16,17,9.50
2019,04,27,16,18,9.50
2019,04,27,16,19,9.60
2019,04,27,16,20,9.60
2019,04,27,16,21,9.60
2019,04,27,16,22,9.60
2019,04,27,16,23,9.70
2019,04,27,16,24,9.70
2019,04,27,16,25,9.70
2019,04,27,16,26,9.70
2019,04,27,16,27,9.70
2019,04,27,16,28,9.70
2019,04,27,16,29,9.70
2019,04,27,16,30,9.70
2019,04,27,16,31,9.70
2019,04,27,16,32,9.70
2019,04,27,16,33,9.70
2019,04,27,16,34,9.70
2019,04,27,16,35,9.70
2019,04,27,16,36,9.80
2019,04,27,16,37,9.80
2019,04,27,16,38,9.90
2019,04,27,16,39,9.90
2019,04,27,16,40,10.00
2019,04,27,16,41,10.00
2019,04,27,16,42,10.10
2019,04,27,16,43,10.10
2019,04,27,16,44,10.10
2019,04,27,16,45,10.10
2019,04,27,16,46,10.10
2019,04,27,16,47,10.10
2019,04,27,16,48,10.10
2019,04,27,16,49,10.00
2019,04,27,16,50,10.00
2019,04,27,16,51,9.90
2019,04,27,16,52,9.90
2019,04,27,16,53,9.80
2019,04,27,16,54,9.80
2019,04,27,16,55,9.80
2019,04,27,16,56,9.90
2019,04,27,16,57,9.90
2019,04,27,16,58,9.90
2019,04,27,16,59,9.90
2019,04,27,17,00,9.90
2019,04,27,17,01,9.90
2019,04,27,17,02,9.90
2019,04,27,17,03,9.90
2019,04,27,17,04,10.00
2019,04,27,17,05,9.90
2019,04,27,17,06,9.90
2019,04,27,17,07,9.90
2019,04,27,17,08,9.90
2019,04,27,17,09,9.90
2019,04,27,17,10,9.90
2019,04,27,17,11,9.90
2019,04,27,17,12,9.90
2019,04,27,17,13,9.90
2019,04,27,17,14,9.90
2019,04,27,17,15,9.90
2019,04,27,17,16,10.00
2019,04,27,17,17,9.90
2019,04,27,17,18,10.00
2019,04,27,17,19,10.00
2019,04,27,17,20,10.00
2019,04,27,17,21,10.00
2019,04,27,17,22,10.00
2019,04,27,17,23,10.00
2019,04,27,17,24,9.90
2019,04,27,17,25,9.90
2019,04,27,17,26,9.90
2019,04,27,17,27,9.90
2019,04,27,17,28,9.90
2019,04,27,17,29,9.90
2019,04,27,17,30,9.90
2019,04,27,17,31,10.00
2019,04,27,17,32,10.00
2019,04,27,17,33,10.00
2019,04,27,17,34,10.10
2019,04,27,17,35,10.10
2019,04,27,17,36,10.10
2019,04,27,17,37,10.10